Home > Weather > Wertheim > Past weeks

Flag for Germany Past Weather in Wertheim, Baden-Württemberg, Germany — Yesterday and Last 2 Weeks

Now
63 °F

Passing clouds.


Feels Like: 63 °F
Forecast: 62 / 75 °F
Wind: 10 mph from West

Location: Niederstetten

Current Time: Jul 29, 2016 at 6:02:31 AM

Latest Report: Jul 29, 2016 at 5:20 AM


Visibility: N/A

Pressure: 30.01 "Hg

Humidity: 88%

Dew Point: 59 °F

Location of WertheimLocation

Past Weather in Wertheim — Graph

°F

Wertheim Temperature Yesterday

Maximum temperature yesterday: 73 °F (at 3:20 PM)
Minimum temperature yesterday: 59 °F (at 2:20 AM)
Average temperature yesterday: 67 °F

High & Low Weather Summary for the Past Weeks

 TemperatureHumidityPressure
High88 °F (Jul 20, 3:20 PM)100% (Jul 22, 12:20 AM)30.33 "Hg (Jul 22, 12:20 AM)
Low48 °F (Jul 15, 6:20 AM)29% (Jul 20, 4:20 PM)29.95 "Hg (Jul 21, 3:20 AM)
Average67 °F71%30.12 "Hg
* Reported Jul 14 4:20 AM — Jul 29 4:20 AM, Wertheim, Weather by CustomWeather, © 2016

Note: Actual official high and low records may vary slightly from our data, if they occured in-between our weather recording intervals... More about our weather records

Advertising

Wertheim Weather History for the Previous 24 Hours

Scroll right to see more
 ConditionsComfort  
Time TempWeatherWind HumidityBarometerVisibility
4:20 AM
Fri, Jul 29
63 °FPassing clouds.10 mph88%30.01 "HgN/A
3:20 AM63 °FPassing clouds.10 mph88%30.01 "HgN/A
2:20 AM63 °FPartly cloudy.8 mph94%30.01 "HgN/A
1:20 AM63 °FPassing clouds.7 mph94%30.04 "HgN/A
12:20 AM63 °FPassing clouds.7 mph94%30.01 "HgN/A
11:20 PM
Thu, Jul 28
64 °FSprinkles. Partly cloudy.7 mph78%30.04 "HgN/A
10:20 PM66 °FSprinkles. Partly cloudy.3 mph68%30.01 "HgN/A
9:20 PM68 °FPartly sunny.3 mph64%30.01 "HgN/A
8:20 PM70 °FBroken clouds.7 mph60%30.01 "HgN/A
7:20 PM72 °FBroken clouds.8 mph57%30.01 "HgN/A
6:20 PM73 °FPartly sunny.9 mph50%30.01 "HgN/A
5:20 PM73 °FBroken clouds.9 mph50%30.04 "HgN/A
4:20 PM73 °FBroken clouds.9 mph53%30.04 "HgN/A
3:20 PM73 °FBroken clouds.10 mph53%30.07 "HgN/A
2:20 PM72 °FBroken clouds.6 mph57%30.07 "HgN/A
1:20 PM72 °FBroken clouds.10 mph57%30.07 "HgN/A
12:20 PM72 °FBroken clouds.6 mph57%30.07 "HgN/A
11:20 AM70 °FBroken clouds.10 mph60%30.09 "HgN/A
10:20 AM68 °FBroken clouds.8 mph64%30.09 "HgN/A
9:20 AM68 °FBroken clouds.6 mph64%30.07 "HgN/A
8:20 AM64 °FBroken clouds.6 mph73%30.07 "HgN/A
7:20 AM63 °FPartly sunny.3 mph83%30.07 "HgN/A
6:20 AM61 °FPassing clouds.3 mph83%30.07 "HgN/A
Weather by CustomWeather, © 2016

See weather overviewHow to use our weather pages